Tracking 28091 objects as of 30-Sep-2023
HD Live streaming from Space Station
objects crossing your sky now

GSAT0204

Track GSAT0204 now!
GSAT0204 is classified as:


NORAD ID: 40545
Int'l Code: 2015-017B
Perigee: 23,217.1 km
Apogee: 23,241.2 km
Inclination: 56.9 °
Period: 844.7 minutes
Semi major axis: 29600 km
RCS: Unknown
Launch date: March 27, 2015
Source: European Space Agency (ESA)
Launch site: FRENCH GUIANA (FRGUI)

GSAT0203 is a member of European's Galileo navigation satellite constellation.
Your satellite tracking list
Your tracking list is empty




NASA's NSSDC Master Catalog

Two Line Element Set (TLE):
1 40545U 15017B   23269.03348640 -.00000092  00000-0  00000-0 0  9994
2 40545  56.9128   8.6972 0004055 217.4748 142.5152  1.70475528 15285
Source of the keplerian elements: AFSPC